Location: Newark
(52.8300°N, 8.0000°E)
Time: 19:16:48
(UTC+00:00)

STARLINK-1085 - Pass Details

Date: 30 January 2020
Orbit: 348 x 351 km, 53.0° (Epoch: 28 February)

Event Time Altitude Azimuth Distance (km) Brightness Sun altitude
Rises 17:58:14 0° 283° (WNW) 2,180 8.0 -16.5°
Reaches altitude 10° 18:00:27 10° 270° (W) 1,332 6.9 -16.8°
Maximum altitude 18:02:57 25° 212° (SSW) 764 4.8 -17.2°
Enters shadow 18:04:36 16° 165° (SSE) 1,045 5.0 -17.5°
